History for Miami, FL

Sunday, November 25, 2012 — View Current Conditions

Jump to Data:

Date:
Airport Code:
Recently Viewed Airport Codes: KMIA
Daily Summary
  Actual Average Record
Temperature
Mean Temperature 66°F 74°F  
Max Temperature 77°F 80°F 86°F (1947)
Min Temperature 55°F 67°F 40°F (1970)
Degree Days
Heating Degree Days 0 0  
Month to date heating degree days 1 0  
Since 1 July heating degree days 1 0  
Cooling Degree Days 1 9  
Month to date cooling degree days 162 259  
Year to date cooling degree days 4401 4331  
Growing Degree Days 16 (Base 50)    
Moisture
Dew Point 53°F    
Average Humidity 61    
Maximum Humidity 86    
Minimum Humidity 36    
Precipitation
Precipitation 0.00 in 0.08 in 2.37 in (2009)
Month to date precipitation 0.24 2.83  
Year to date precipitation 86.17 59.42  
Snow
Snow 0.00 in in in ()
Month to date snowfall 0.0  
Since 1 July snowfall 0.0  
Since 1 September snowfall 0.0  
Snow Depth 0.00 in    
Sea Level Pressure
Sea Level Pressure 30.10 in    
Wind
Wind Speed 3 mph (West)    
Max Wind Speed 8 mph    
Max Gust Speed 17 mph    
Visibility 10 miles    
Events      
T = Trace of Precipitation, MM = Missing Value Source: NWS Daily Summary

Show full METARS

(help) - Comma Delimited File

Hourly Observations

Time(EST) Temperature Dew Point Humidity Sea Level Pressure Visibility Wind Direction Wind Speed Gust Speed Precipitation Events Conditions
12:53 AM 63.0°F 57.0°F 81% 30.08 in 10.0 miles NW 5.8 mph - N/A   Clear
1:53 AM 61.0°F 55.0°F 81% 30.08 in 10.0 miles NW 4.6 mph - N/A   Clear
2:53 AM 60.1°F 54.0°F 80% 30.07 in 10.0 miles Variable 3.5 mph - N/A   Clear
3:53 AM 57.9°F 53.1°F 84% 30.08 in 10.0 miles WNW 4.6 mph - N/A   Clear
4:53 AM 57.0°F 52.0°F 83% 30.07 in 10.0 miles Calm Calm - N/A   Clear
5:53 AM 55.9°F 52.0°F 87% 30.09 in 10.0 miles NW 3.5 mph - N/A   Clear
6:53 AM 55.9°F 52.0°F 87% 30.09 in 10.0 miles WNW 3.5 mph - N/A   Clear
7:53 AM 57.9°F 53.1°F 84% 30.12 in 10.0 miles NW 4.6 mph - N/A   Clear
8:53 AM 62.1°F 54.0°F 75% 30.13 in 10.0 miles WNW 5.8 mph - N/A   Clear
9:53 AM 64.9°F 55.0°F 70% 30.14 in 10.0 miles WNW 3.5 mph - N/A   Partly Cloudy
10:53 AM 69.1°F 55.0°F 61% 30.14 in 10.0 miles West 4.6 mph - N/A   Partly Cloudy
11:53 AM 71.1°F 54.0°F 55% 30.13 in 10.0 miles Variable 5.8 mph - N/A   Clear
12:53 PM 73.9°F 48.9°F 41% 30.11 in 10.0 miles Variable 3.5 mph - N/A   Clear
1:53 PM 75.0°F 48.9°F 40% 30.08 in 10.0 miles Variable 3.5 mph - N/A   Clear
2:53 PM 75.9°F 50.0°F 40% 30.07 in 10.0 miles SW 3.5 mph - N/A   Clear
3:53 PM 75.9°F 46.9°F 36% 30.07 in 10.0 miles Calm Calm - N/A   Clear
4:53 PM 73.0°F 54.0°F 51% 30.08 in 10.0 miles SSE 6.9 mph - N/A   Clear
5:53 PM 70.0°F 55.0°F 59% 30.09 in 10.0 miles SSE 3.5 mph - N/A   Partly Cloudy
6:53 PM 70.0°F 55.0°F 59% 30.11 in 10.0 miles Calm Calm - N/A   Clear
7:53 PM 68.0°F 55.0°F 63% 30.13 in 10.0 miles SSW 3.5 mph - N/A   Clear
8:53 PM 64.9°F 55.0°F 70% 30.14 in 10.0 miles Calm Calm - N/A   Clear
9:53 PM 64.0°F 55.0°F 73% 30.14 in 10.0 miles Calm Calm - N/A   Clear
10:53 PM 64.0°F 54.0°F 70% 30.14 in 10.0 miles Calm Calm - N/A   Clear
11:53 PM 63.0°F 55.0°F 75% 30.14 in 10.0 miles Calm Calm - N/A   Clear